UAE9942 LCLK-OMDB

Flight info

Callsign UAE9942
Flight time N/A
Altitude 33000
Route EMEDA1D EMEDA L13 STEPA/N0484F350 N71 LAKTO N307 MELDO A16 CVO L315 HGD M872 BDB Y214 RAPMA DCT KUVSO DCT KATIT DCT PEKEM M628 RIGIL G783 ASPED Q308 KIPOK Q568 IMPED IMPED3C
Aircraft B77L/H-SDE1E2E3FGHIJ2J3J4J5M1RWXY/LB1D1

Departure

Time 2026-05-01 08:33
Airport Larnaca International Airport (LCLK)

Arrival

Time N/A
Airport Dubai International Airport (OMDB)
Time Latitude Longitude Altitude Speed Heading
2026-05-01 08:18 34.86767 33.60784 25 ft 0 kts 184°
2026-05-01 08:20 34.86756 33.60790 27 ft 4 kts 148°
2026-05-01 08:21 34.86728 33.60841 25 ft 8 kts 126°
2026-05-01 08:21 34.86693 33.60898 26 ft 8 kts 130°
2026-05-01 08:21 34.86660 33.60940 28 ft 0 kts 133°
2026-05-01 08:23 34.86652 33.60959 26 ft 11 kts 109°
2026-05-01 08:23 34.86704 33.61076 28 ft 17 kts 45°
2026-05-01 08:23 34.86789 33.61181 26 ft 17 kts 45°
2026-05-01 08:24 34.86876 33.61285 27 ft 17 kts 43°
2026-05-01 08:24 34.86964 33.61388 27 ft 17 kts 44°
2026-05-01 08:24 34.87050 33.61491 23 ft 17 kts 46°
2026-05-01 08:24 34.87063 33.61507 27 ft 0 kts 46°
2026-05-01 08:27 34.87081 33.61530 27 ft 13 kts 46°
2026-05-01 08:28 34.87171 33.61641 27 ft 20 kts 43°
2026-05-01 08:28 34.87270 33.61758 25 ft 20 kts 46°
2026-05-01 08:28 34.87365 33.61880 26 ft 20 kts 46°
2026-05-01 08:28 34.87461 33.61998 24 ft 20 kts 45°
2026-05-01 08:29 34.87531 33.62093 22 ft 2 kts 78°
2026-05-01 08:29 34.87522 33.62194 23 ft 4 kts 70°
2026-05-01 08:29 34.87561 33.62251 24 ft 14 kts 39°
2026-05-01 08:29 34.87648 33.62356 24 ft 18 kts 49°
2026-05-01 08:30 34.87735 33.62467 25 ft 18 kts 42°
2026-05-01 08:30 34.87818 33.62570 21 ft 18 kts 46°
2026-05-01 08:30 34.87908 33.62679 25 ft 18 kts 45°
2026-05-01 08:30 34.87997 33.62787 22 ft 18 kts 45°
2026-05-01 08:31 34.88091 33.62904 22 ft 25 kts 44°
2026-05-01 08:31 34.88222 33.63061 20 ft 27 kts 45°
2026-05-01 08:31 34.88352 33.63221 20 ft 27 kts 45°
2026-05-01 08:31 34.88442 33.63359 20 ft 8 kts 92°
2026-05-01 08:32 34.88408 33.63430 22 ft 14 kts 128°
2026-05-01 08:32 34.88300 33.63494 20 ft 27 kts 202°
2026-05-01 08:32 34.87948 33.63092 25 ft 119 kts 225°
2026-05-01 08:32 34.87145 33.62092 113 ft 201 kts 224°
2026-05-01 08:33 34.86161 33.60859 1139 ft 206 kts 225°
2026-05-01 08:33 34.85129 33.59612 1943 ft 217 kts 224°
2026-05-01 08:33 34.84011 33.58265 2359 ft 241 kts 224°
2026-05-01 08:33 34.82810 33.56799 3183 ft 248 kts 224°
2026-05-01 08:34 34.81456 33.55641 3870 ft 254 kts 198°
2026-05-01 08:34 34.79694 33.55476 4641 ft 259 kts 167°
2026-05-01 08:34 34.78063 33.56420 5423 ft 264 kts 142°
2026-05-01 08:34 34.76667 33.57906 6178 ft 271 kts 138°
2026-05-01 08:35 34.75285 33.59467 6927 ft 277 kts 138°
2026-05-01 08:35 34.73868 33.61078 7756 ft 281 kts 138°
2026-05-01 08:35 34.72433 33.62706 8599 ft 284 kts 138°
2026-05-01 08:35 34.70973 33.64355 9434 ft 289 kts 138°
2026-05-01 08:36 34.69487 33.66024 10214 ft 293 kts 139°
2026-05-01 08:36 34.67945 33.67749 10654 ft 312 kts 139°
2026-05-01 08:36 34.66273 33.69610 10838 ft 339 kts 139°
2026-05-01 08:36 34.64466 33.71619 11053 ft 365 kts 139°
2026-05-01 08:37 34.62530 33.73700 11422 ft 376 kts 144°
2026-05-01 08:37 34.60193 33.75154 11864 ft 380 kts 163°
2026-05-01 08:37 34.57637 33.76145 12514 ft 390 kts 163°
2026-05-01 08:37 34.55079 33.77224 13378 ft 393 kts 162°
2026-05-01 08:38 34.52484 33.78374 14219 ft 397 kts 162°
2026-05-01 08:38 34.49967 33.79170 14733 ft 397 kts 178°
2026-05-01 08:38 34.47213 33.78812 15392 ft 397 kts 198°
2026-05-01 08:38 34.44734 33.77457 16183 ft 395 kts 214°
2026-05-01 08:39 34.42444 33.75548 16844 ft 398 kts 217°
2026-05-01 08:39 34.40183 33.73571 17544 ft 403 kts 218°
2026-05-01 08:39 34.37910 33.71560 18313 ft 406 kts 218°
2026-05-01 08:39 34.35624 33.69540 18968 ft 408 kts 218°
2026-05-01 08:40 34.30984 33.65481 20276 ft 415 kts 217°
2026-05-01 08:40 34.28624 33.63436 20894 ft 419 kts 217°
2026-05-01 08:40 34.26270 33.61406 21507 ft 423 kts 217°
2026-05-01 08:41 34.23834 33.59310 22130 ft 426 kts 217°
2026-05-01 08:41 34.21408 33.57227 22743 ft 430 kts 217°
2026-05-01 08:41 34.18990 33.55154 23339 ft 433 kts 217°
2026-05-01 08:41 34.16519 33.53037 23869 ft 437 kts 217°
2026-05-01 08:42 34.14036 33.50912 24379 ft 440 kts 218°
2026-05-01 08:42 34.11553 33.48788 24873 ft 443 kts 218°
2026-05-01 08:42 34.09011 33.46615 25395 ft 445 kts 218°
2026-05-01 08:42 34.06474 33.44447 25885 ft 448 kts 218°
2026-05-01 08:43 34.03921 33.42268 26361 ft 452 kts 218°
2026-05-01 08:43 34.01374 33.40094 26824 ft 455 kts 219°
2026-05-01 08:43 33.98762 33.37867 27292 ft 458 kts 219°
2026-05-01 08:43 33.96150 33.35642 27760 ft 461 kts 219°
2026-05-01 08:44 33.93527 33.33409 28207 ft 464 kts 219°
2026-05-01 08:44 33.90883 33.31160 28643 ft 466 kts 219°
2026-05-01 08:44 33.88229 33.28905 29047 ft 469 kts 219°
2026-05-01 08:44 33.86460 33.27402 29321 ft 471 kts 220°
2026-05-01 08:45 33.83795 33.25140 29679 ft 474 kts 220°
2026-05-01 08:45 33.81099 33.22854 30087 ft 475 kts 220°
2026-05-01 08:45 33.78395 33.20564 30490 ft 475 kts 220°
2026-05-01 08:45 33.75708 33.18291 30935 ft 473 kts 220°
2026-05-01 08:46 33.73015 33.16016 31380 ft 472 kts 220°
2026-05-01 08:46 33.70323 33.13741 31792 ft 471 kts 220°
2026-05-01 08:46 33.67643 33.11477 32174 ft 471 kts 221°
2026-05-01 08:46 33.64967 33.09218 32553 ft 470 kts 221°
2026-05-01 08:47 33.62292 33.06962 32943 ft 470 kts 221°
2026-05-01 08:47 33.59609 33.04698 32975 ft 474 kts 221°
2026-05-01 08:47 33.54230 33.00170 32979 ft 470 kts 221°
2026-05-01 08:48 33.48891 32.95686 32997 ft 467 kts 221°
2026-05-01 08:48 33.43572 32.91221 32994 ft 467 kts 221°
2026-05-01 08:49 33.38283 32.86789 32998 ft 467 kts 221°
2026-05-01 08:49 33.32955 32.82329 32992 ft 468 kts 221°
2026-05-01 08:50 33.27606 32.77861 32996 ft 469 kts 221°
2026-05-01 08:50 33.22257 32.73398 33000 ft 470 kts 221°
2026-05-01 08:51 33.16891 32.68930 32999 ft 470 kts 221°
2026-05-01 08:51 33.11522 32.64465 32999 ft 471 kts 221°
2026-05-01 08:52 33.06151 32.60005 33000 ft 471 kts 221°
2026-05-01 08:52 33.00773 32.55546 33001 ft 470 kts 221°
2026-05-01 08:53 32.95402 32.51099 33003 ft 470 kts 221°
2026-05-01 08:53 32.90030 32.46657 32998 ft 470 kts 221°
2026-05-01 08:54 32.84702 32.42165 32999 ft 466 kts 226°
2026-05-01 08:54 32.80123 32.36851 33008 ft 457 kts 235°
2026-05-01 08:55 32.76390 32.30890 33009 ft 451 kts 241°
2026-05-01 08:55 32.72860 32.24723 33002 ft 452 kts 241°
2026-05-01 08:56 32.69297 32.18567 33003 ft 453 kts 241°
2026-05-01 08:56 32.65711 32.12424 33002 ft 453 kts 240°
2026-05-01 08:57 32.62115 32.06276 33005 ft 454 kts 240°
2026-05-01 08:57 32.58525 32.00124 33008 ft 454 kts 240°
2026-05-01 08:58 32.54931 31.93967 33004 ft 454 kts 240°
2026-05-01 08:58 32.51333 31.87815 33022 ft 454 kts 240°
2026-05-01 08:59 32.47732 31.81669 33021 ft 454 kts 240°
2026-05-01 08:59 32.44122 31.75518 33015 ft 455 kts 240°
2026-05-01 09:00 32.40512 31.69376 33012 ft 455 kts 240°
2026-05-01 09:00 32.36895 31.63233 33007 ft 455 kts 240°
2026-05-01 09:01 32.33272 31.57089 33010 ft 455 kts 240°
2026-05-01 09:01 32.29673 31.50996 33014 ft 455 kts 240°
2026-05-01 09:02 32.26050 31.44872 33009 ft 455 kts 240°
2026-05-01 09:02 32.22417 31.38740 33006 ft 455 kts 239°
2026-05-01 09:03 32.18785 31.32621 33015 ft 455 kts 239°
2026-05-01 09:03 32.15147 31.26500 33017 ft 456 kts 239°
2026-05-01 09:04 32.11504 31.20379 33012 ft 456 kts 239°
2026-05-01 09:04 32.07857 31.14262 33011 ft 456 kts 239°
2026-05-01 09:05 32.05838 31.11386 32999 ft 461 kts 227°
2026-05-01 09:05 32.03153 31.09230 33021 ft 474 kts 211°
2026-05-01 09:05 32.00039 31.07870 33020 ft 484 kts 200°
2026-05-01 09:05 31.96669 31.07309 33003 ft 497 kts 184°
2026-05-01 09:06 31.89747 31.08072 33017 ft 502 kts 178°
2026-05-01 09:06 31.82781 31.09017 33013 ft 504 kts 179°
2026-05-01 09:07 31.75794 31.09833 33008 ft 505 kts 180°
2026-05-01 09:07 31.68789 31.10585 33003 ft 505 kts 180°
2026-05-01 09:08 31.61841 31.11331 32999 ft 504 kts 180°
2026-05-01 09:08 31.54865 31.12087 32987 ft 503 kts 180°
2026-05-01 09:09 31.47920 31.13148 33005 ft 504 kts 176°
2026-05-01 09:09 31.41005 31.14469 32994 ft 503 kts 175°
2026-05-01 09:10 31.34097 31.15767 32992 ft 502 kts 176°
2026-05-01 09:10 31.27200 31.17031 32990 ft 501 kts 176°
2026-05-01 09:11 31.20310 31.18299 32987 ft 501 kts 176°
2026-05-01 09:11 31.13415 31.19585 32989 ft 501 kts 176°
2026-05-01 09:12 31.06524 31.20872 32983 ft 502 kts 176°
2026-05-01 09:12 30.99630 31.22156 32984 ft 502 kts 176°
2026-05-01 09:13 30.92740 31.23435 32985 ft 502 kts 176°
2026-05-01 09:13 30.85847 31.24713 32974 ft 501 kts 176°
2026-05-01 09:14 30.78911 31.25997 32986 ft 501 kts 176°
2026-05-01 09:14 30.72083 31.27259 32983 ft 500 kts 176°
2026-05-01 09:15 30.65159 31.28537 32981 ft 500 kts 175°
2026-05-01 09:15 30.58328 31.29796 32977 ft 500 kts 176°
2026-05-01 09:16 30.51459 31.31060 32980 ft 499 kts 175°
2026-05-01 09:17 30.41176 31.32950 32977 ft 499 kts 176°
2026-05-01 09:17 30.30983 31.34818 32982 ft 499 kts 176°
2026-05-01 09:18 30.20710 31.36698 32993 ft 499 kts 176°
2026-05-01 09:19 30.10481 31.39101 32987 ft 507 kts 163°
2026-05-01 09:20 30.01311 31.45295 33000 ft 517 kts 147°
2026-05-01 09:21 29.89862 31.55300 32990 ft 518 kts 147°
2026-05-01 09:21 29.81187 31.62711 33000 ft 519 kts 147°
2026-05-01 09:22 29.69588 31.72547 33002 ft 519 kts 147°
2026-05-01 09:23 29.60891 31.79913 33007 ft 518 kts 147°
2026-05-01 09:24 29.52192 31.87266 32995 ft 517 kts 147°
2026-05-01 09:25 29.40596 31.97041 33007 ft 517 kts 148°
2026-05-01 09:26 29.31892 32.04359 33010 ft 517 kts 148°
2026-05-01 09:26 29.23190 32.11661 33001 ft 517 kts 148°
2026-05-01 09:27 29.14488 32.18947 33004 ft 517 kts 148°
2026-05-01 09:28 29.08670 32.23809 32998 ft 517 kts 148°
2026-05-01 09:28 29.02865 32.28654 32997 ft 517 kts 148°
2026-05-01 09:29 28.94147 32.35916 32996 ft 517 kts 148°
2026-05-01 09:30 28.86407 32.42352 33005 ft 518 kts 148°
2026-05-01 09:30 28.77659 32.49610 32992 ft 519 kts 148°
2026-05-01 09:31 28.71828 32.54439 32989 ft 517 kts 148°
2026-05-01 09:32 28.63100 32.61657 32986 ft 517 kts 149°
2026-05-01 09:32 28.54381 32.68851 32976 ft 516 kts 149°
2026-05-01 09:33 28.48562 32.73643 32970 ft 516 kts 149°
2026-05-01 09:34 28.39875 32.80786 32960 ft 517 kts 149°
2026-05-01 09:34 28.31128 32.87963 32961 ft 517 kts 149°
2026-05-01 09:35 28.22371 32.95134 32956 ft 518 kts 149°
2026-05-01 09:36 28.16524 32.99913 32953 ft 518 kts 149°
2026-05-01 09:36 28.10667 33.04696 32964 ft 519 kts 149°
2026-05-01 09:37 28.04812 33.09471 32954 ft 519 kts 149°
2026-05-01 09:37 27.96021 33.16623 32952 ft 519 kts 149°
2026-05-01 09:38 27.87235 33.23757 32937 ft 518 kts 149°
2026-05-01 09:39 27.78453 33.30877 32935 ft 518 kts 149°
2026-05-01 09:39 27.72603 33.35611 32928 ft 517 kts 149°
2026-05-01 09:40 27.63834 33.42697 32938 ft 516 kts 149°
2026-05-01 09:41 27.57992 33.47409 32928 ft 516 kts 149°
2026-05-01 09:41 27.49221 33.54471 32927 ft 517 kts 150°
2026-05-01 09:42 27.43363 33.59166 32926 ft 516 kts 150°
2026-05-01 09:43 27.31678 33.68519 32936 ft 516 kts 150°
2026-05-01 09:43 27.25826 33.73196 32938 ft 516 kts 150°
2026-05-01 09:44 27.20141 33.78147 32929 ft 523 kts 139°
2026-05-01 09:44 27.17777 33.81287 32944 ft 529 kts 130°
2026-05-01 09:45 27.14344 33.88649 32944 ft 538 kts 114°
2026-05-01 09:45 27.10356 34.00442 32939 ft 539 kts 114°
2026-05-01 09:46 27.07596 34.08259 32937 ft 539 kts 115°
2026-05-01 09:46 27.04794 34.16046 32932 ft 539 kts 115°
2026-05-01 09:47 27.01998 34.23837 32930 ft 538 kts 115°
2026-05-01 09:47 26.99202 34.31628 32930 ft 538 kts 115°
2026-05-01 09:48 26.96409 34.39403 32934 ft 537 kts 115°
2026-05-01 09:48 26.93614 34.47170 32931 ft 537 kts 115°
2026-05-01 09:49 26.90816 34.54928 32928 ft 537 kts 115°
2026-05-01 09:49 26.88018 34.62670 32930 ft 536 kts 115°
2026-05-01 09:50 26.85214 34.70413 32931 ft 536 kts 116°
2026-05-01 09:50 26.82405 34.78153 32928 ft 536 kts 116°
2026-05-01 09:51 26.79594 34.85886 32922 ft 536 kts 116°
2026-05-01 09:51 26.76780 34.93610 32927 ft 536 kts 116°
2026-05-01 09:52 26.73961 35.01332 32925 ft 536 kts 116°
2026-05-01 09:52 26.71138 35.09051 32926 ft 536 kts 116°
2026-05-01 09:53 26.68312 35.16763 32924 ft 536 kts 116°
2026-05-01 09:53 26.65480 35.24474 32925 ft 536 kts 116°
2026-05-01 09:54 26.62646 35.32179 32925 ft 536 kts 116°
2026-05-01 09:54 26.59808 35.39881 32933 ft 536 kts 116°
2026-05-01 09:55 26.56966 35.47579 32924 ft 536 kts 116°
2026-05-01 09:55 26.54077 35.55247 32909 ft 535 kts 117°
2026-05-01 09:56 26.51143 35.62873 32918 ft 535 kts 117°
2026-05-01 09:56 26.48210 35.70495 32914 ft 534 kts 117°
2026-05-01 09:57 26.45282 35.78117 32909 ft 534 kts 117°
2026-05-01 09:57 26.42356 35.85731 32910 ft 534 kts 117°
2026-05-01 09:58 26.39428 35.93333 32908 ft 534 kts 117°
2026-05-01 09:58 26.36491 36.00944 32906 ft 534 kts 117°
2026-05-01 09:59 26.33547 36.08558 32903 ft 535 kts 117°
2026-05-01 09:59 26.30597 36.16175 32902 ft 536 kts 117°
2026-05-01 10:00 26.27641 36.23790 32903 ft 537 kts 117°
2026-05-01 10:00 26.24671 36.31431 32909 ft 537 kts 117°
2026-05-01 10:01 26.21691 36.39082 32909 ft 538 kts 117°
2026-05-01 10:01 26.18729 36.46676 32914 ft 539 kts 117°
2026-05-01 10:02 26.15402 36.54104 32916 ft 535 kts 123°
2026-05-01 10:02 26.11788 36.61338 32900 ft 535 kts 124°
2026-05-01 10:03 26.08178 36.68565 32907 ft 534 kts 123°
2026-05-01 10:03 26.04598 36.75806 32906 ft 534 kts 123°
2026-05-01 10:04 26.01023 36.83054 32904 ft 534 kts 123°
2026-05-01 10:04 25.97447 36.90291 32911 ft 534 kts 123°
2026-05-01 10:05 25.93863 36.97525 32918 ft 534 kts 123°
2026-05-01 10:05 25.90278 37.04747 32922 ft 534 kts 123°
2026-05-01 10:06 25.86689 37.11968 32937 ft 534 kts 123°
2026-05-01 10:06 25.83099 37.19184 32930 ft 534 kts 123°
2026-05-01 10:07 25.79504 37.26394 32934 ft 534 kts 123°
2026-05-01 10:07 25.75914 37.33600 32920 ft 534 kts 123°
2026-05-01 10:08 25.70528 37.44406 32941 ft 533 kts 123°
2026-05-01 10:09 25.66936 37.51595 32938 ft 533 kts 123°
2026-05-01 10:09 25.63336 37.58791 32950 ft 535 kts 124°
2026-05-01 10:10 25.59718 37.66010 32948 ft 536 kts 123°
2026-05-01 10:10 25.54267 37.76865 32936 ft 538 kts 123°
2026-05-01 10:11 25.51236 37.82891 32921 ft 539 kts 124°
2026-05-01 10:11 25.46973 37.91354 32925 ft 538 kts 124°
2026-05-01 10:12 25.43939 37.97364 32915 ft 538 kts 124°
2026-05-01 10:13 25.38460 38.08203 32905 ft 538 kts 124°
2026-05-01 10:13 25.34807 38.15414 32884 ft 536 kts 124°
2026-05-01 10:14 25.29336 38.26192 32899 ft 537 kts 124°
2026-05-01 10:14 25.25673 38.33394 32911 ft 539 kts 124°
2026-05-01 10:15 25.21991 38.40625 32907 ft 541 kts 124°
2026-05-01 10:15 25.18293 38.47876 32911 ft 542 kts 124°
2026-05-01 10:16 25.14585 38.55135 32913 ft 543 kts 124°
2026-05-01 10:17 25.09025 38.66003 32918 ft 542 kts 124°
2026-05-01 10:17 25.03487 38.76818 32937 ft 537 kts 124°
2026-05-01 10:18 24.97965 38.87565 32940 ft 538 kts 124°
2026-05-01 10:19 24.94265 38.94742 32959 ft 540 kts 124°
2026-05-01 10:19 24.90530 39.01930 32957 ft 542 kts 125°
2026-05-01 10:20 24.84895 39.12765 32953 ft 545 kts 124°
2026-05-01 10:20 24.81131 39.19998 32954 ft 545 kts 125°
2026-05-01 10:21 24.75502 39.30791 32959 ft 544 kts 125°
2026-05-01 10:22 24.69846 39.41618 32955 ft 544 kts 125°
2026-05-01 10:23 24.64218 39.52368 32967 ft 544 kts 125°
2026-05-01 10:23 24.58559 39.63160 32959 ft 542 kts 125°
2026-05-01 10:24 24.55409 39.70731 32972 ft 550 kts 111°
2026-05-01 10:24 24.53717 39.78947 32962 ft 556 kts 99°
2026-05-01 10:25 24.52253 39.95863 32971 ft 557 kts 98°
2026-05-01 10:26 24.51462 40.04324 32973 ft 557 kts 98°
2026-05-01 10:27 24.49794 40.21259 32971 ft 559 kts 98°
2026-05-01 10:28 24.48538 40.33987 32972 ft 559 kts 98°
2026-05-01 10:28 24.47278 40.46668 32971 ft 560 kts 99°
2026-05-01 10:29 24.45999 40.59424 32965 ft 561 kts 99°
2026-05-01 10:30 24.44291 40.76420 32970 ft 561 kts 99°
2026-05-01 10:31 24.42565 40.93454 32970 ft 561 kts 99°
2026-05-01 10:32 24.41263 41.06188 32976 ft 559 kts 99°
2026-05-01 10:33 24.39490 41.23071 32975 ft 556 kts 99°
2026-05-01 10:34 24.38144 41.35724 32980 ft 556 kts 99°
2026-05-01 10:34 24.37244 41.44148 32979 ft 557 kts 99°
2026-05-01 10:35 24.35886 41.56787 32986 ft 558 kts 99°
2026-05-01 10:35 24.34972 41.65232 32972 ft 558 kts 99°
2026-05-01 10:36 24.33589 41.77934 32977 ft 559 kts 100°
2026-05-01 10:37 24.32212 41.86290 32977 ft 554 kts 110°
2026-05-01 10:37 24.28947 41.98367 32981 ft 554 kts 111°
2026-05-01 10:38 24.26744 42.06516 32977 ft 554 kts 110°
2026-05-01 10:38 24.24609 42.14571 32979 ft 554 kts 110°
2026-05-01 10:39 24.22468 42.22684 32982 ft 554 kts 110°
2026-05-01 10:39 24.20319 42.30794 32977 ft 554 kts 110°
2026-05-01 10:40 24.18160 42.38904 32986 ft 555 kts 110°
2026-05-01 10:40 24.15997 42.47010 32975 ft 555 kts 110°
2026-05-01 10:41 24.13831 42.55112 32984 ft 555 kts 110°
2026-05-01 10:42 24.10572 42.67265 32986 ft 555 kts 111°
2026-05-01 10:42 24.08395 42.75363 32989 ft 555 kts 111°
2026-05-01 10:43 24.06213 42.83463 32987 ft 555 kts 111°
2026-05-01 10:43 24.04026 42.91562 32986 ft 555 kts 111°
2026-05-01 10:44 24.01834 42.99665 32989 ft 555 kts 111°
2026-05-01 10:44 23.99641 43.07763 32986 ft 555 kts 111°
2026-05-01 10:45 23.97445 43.15857 32989 ft 555 kts 111°
2026-05-01 10:45 23.95244 43.23951 32990 ft 555 kts 111°
2026-05-01 10:46 23.93038 43.32040 32993 ft 556 kts 111°
2026-05-01 10:46 23.90826 43.40135 32986 ft 556 kts 111°
2026-05-01 10:47 23.88608 43.48235 32985 ft 556 kts 111°
2026-05-01 10:47 23.86386 43.56331 32979 ft 556 kts 111°
2026-05-01 10:48 23.84161 43.64424 32967 ft 556 kts 111°
2026-05-01 10:48 23.81931 43.72514 32966 ft 556 kts 111°
2026-05-01 10:49 23.79697 43.80603 32957 ft 556 kts 111°
2026-05-01 10:49 23.77625 43.88753 32952 ft 560 kts 105°
2026-05-01 10:50 23.76641 43.97216 32949 ft 564 kts 97°
2026-05-01 10:50 23.76094 44.05749 32948 ft 564 kts 97°
2026-05-01 10:51 23.75512 44.14294 32942 ft 564 kts 97°
2026-05-01 10:51 23.74875 44.22825 32953 ft 564 kts 98°
2026-05-01 10:52 23.74220 44.31345 32951 ft 564 kts 98°
2026-05-01 10:52 23.73567 44.39811 32953 ft 564 kts 98°
2026-05-01 10:53 23.72910 44.48339 32944 ft 564 kts 98°
2026-05-01 10:53 23.72249 44.56861 32948 ft 564 kts 98°
2026-05-01 10:54 23.71582 44.65387 32951 ft 564 kts 98°
2026-05-01 10:54 23.70911 44.73916 32945 ft 564 kts 98°
2026-05-01 10:55 23.70235 44.82443 32943 ft 564 kts 98°
2026-05-01 10:55 23.69554 44.90971 32955 ft 564 kts 98°
2026-05-01 10:56 23.68864 44.99498 32956 ft 564 kts 98°
2026-05-01 10:56 23.68170 45.08030 32953 ft 565 kts 98°
2026-05-01 10:57 23.67587 45.15179 32954 ft 565 kts 98°
2026-05-01 10:57 23.66890 45.23645 32954 ft 564 kts 98°
2026-05-01 10:58 23.66186 45.32178 32947 ft 564 kts 98°
2026-05-01 10:58 23.65479 45.40696 32939 ft 564 kts 98°
2026-05-01 10:59 23.64766 45.49216 32937 ft 564 kts 98°
2026-05-01 10:59 23.64050 45.57739 32936 ft 564 kts 98°
2026-05-01 11:00 23.63329 45.66256 32934 ft 564 kts 98°
2026-05-01 11:00 23.62605 45.74763 32937 ft 563 kts 98°
2026-05-01 11:01 23.61878 45.83268 32933 ft 563 kts 98°
2026-05-01 11:01 23.61151 45.91722 32929 ft 564 kts 98°
2026-05-01 11:02 23.60415 46.00230 32933 ft 564 kts 98°
2026-05-01 11:02 23.59674 46.08743 32939 ft 564 kts 98°
2026-05-01 11:03 23.58928 46.17256 32946 ft 564 kts 98°
2026-05-01 11:03 23.58179 46.25773 32943 ft 565 kts 98°
2026-05-01 11:04 23.57420 46.34299 32941 ft 565 kts 98°
2026-05-01 11:04 23.56660 46.42809 32951 ft 564 kts 98°
2026-05-01 11:05 23.55899 46.51310 32947 ft 563 kts 99°
2026-05-01 11:05 23.55125 46.59802 32932 ft 563 kts 99°
2026-05-01 11:06 23.54341 46.68277 32937 ft 562 kts 99°
2026-05-01 11:06 23.53553 46.76748 32948 ft 562 kts 99°
2026-05-01 11:07 23.52369 46.89409 32925 ft 563 kts 99°
2026-05-01 11:07 23.51571 46.97892 32929 ft 563 kts 99°
2026-05-01 11:08 23.50768 47.06378 32913 ft 563 kts 99°
2026-05-01 11:09 23.49556 47.19093 32913 ft 563 kts 99°
2026-05-01 11:09 23.48742 47.27565 32908 ft 562 kts 99°
2026-05-01 11:10 23.47514 47.40264 32908 ft 562 kts 99°
2026-05-01 11:10 23.46691 47.48719 32899 ft 561 kts 99°
2026-05-01 11:11 23.45865 47.57177 32897 ft 561 kts 99°
2026-05-01 11:11 23.45042 47.65619 32894 ft 561 kts 99°
2026-05-01 11:12 23.44217 47.74058 32886 ft 560 kts 99°
2026-05-01 11:12 23.43391 47.82435 32884 ft 560 kts 99°
2026-05-01 11:13 23.42551 47.90919 32876 ft 560 kts 99°
2026-05-01 11:13 23.41711 47.99339 32872 ft 560 kts 99°
2026-05-01 11:14 23.40873 48.07706 32866 ft 559 kts 99°
2026-05-01 11:14 23.40025 48.16125 32862 ft 559 kts 99°
2026-05-01 11:15 23.39174 48.24528 32859 ft 559 kts 99°
2026-05-01 11:15 23.38321 48.32930 32855 ft 558 kts 99°
2026-05-01 11:16 23.37822 48.41383 32856 ft 560 kts 95°
2026-05-01 11:16 23.37536 48.49853 32857 ft 560 kts 95°
2026-05-01 11:17 23.37234 48.58322 32853 ft 560 kts 95°
2026-05-01 11:17 23.36893 48.66782 32854 ft 560 kts 95°
2026-05-01 11:18 23.36537 48.75241 32849 ft 559 kts 95°
2026-05-01 11:18 23.36179 48.83697 32848 ft 559 kts 95°
2026-05-01 11:19 23.35820 48.92140 32842 ft 559 kts 95°
2026-05-01 11:19 23.35458 49.00583 32839 ft 558 kts 95°
2026-05-01 11:20 23.34932 49.08995 32837 ft 555 kts 101°
2026-05-01 11:20 23.33754 49.17285 32836 ft 554 kts 103°
2026-05-01 11:21 23.32494 49.25557 32835 ft 554 kts 103°
2026-05-01 11:21 23.31262 49.33835 32827 ft 554 kts 102°
2026-05-01 11:22 23.30059 49.42120 32834 ft 554 kts 102°
2026-05-01 11:22 23.28868 49.50352 32827 ft 554 kts 102°
2026-05-01 11:23 23.27657 49.58679 32833 ft 554 kts 102°
2026-05-01 11:23 23.26446 49.66948 32831 ft 553 kts 102°
2026-05-01 11:24 23.25239 49.75155 32832 ft 553 kts 102°
2026-05-01 11:25 23.23410 49.87531 32829 ft 553 kts 102°
2026-05-01 11:25 23.21570 49.99912 32829 ft 552 kts 102°
2026-05-01 11:26 23.19726 50.12261 32832 ft 551 kts 102°
2026-05-01 11:27 23.18492 50.20485 32832 ft 551 kts 102°
2026-05-01 11:27 23.17254 50.28700 32819 ft 551 kts 102°
2026-05-01 11:28 23.16014 50.36906 32824 ft 550 kts 102°
2026-05-01 11:28 23.14770 50.45106 32825 ft 550 kts 102°
2026-05-01 11:29 23.12897 50.57394 32824 ft 549 kts 102°
2026-05-01 11:30 23.11016 50.69669 32819 ft 549 kts 102°
2026-05-01 11:30 23.09758 50.77844 32818 ft 548 kts 103°
2026-05-01 11:31 23.08505 50.85958 32819 ft 548 kts 103°
2026-05-01 11:31 23.07240 50.94116 32815 ft 548 kts 103°
2026-05-01 11:32 23.05971 51.02279 32813 ft 548 kts 103°
2026-05-01 11:32 23.04698 51.10433 32812 ft 548 kts 103°
2026-05-01 11:33 23.03422 51.18584 32810 ft 547 kts 103°
2026-05-01 11:33 23.02142 51.26731 32820 ft 547 kts 103°
2026-05-01 11:34 23.00857 51.34877 32802 ft 547 kts 103°
2026-05-01 11:34 22.99570 51.43014 32813 ft 547 kts 103°
2026-05-01 11:35 22.98279 51.51141 32807 ft 547 kts 103°
2026-05-01 11:35 22.96985 51.59266 32804 ft 546 kts 103°
2026-05-01 11:36 22.95687 51.67384 32810 ft 546 kts 103°
2026-05-01 11:36 22.94386 51.75498 32799 ft 546 kts 103°
2026-05-01 11:37 22.93081 51.83607 32803 ft 546 kts 103°
2026-05-01 11:37 22.91771 51.91718 32803 ft 545 kts 103°
2026-05-01 11:38 22.90459 51.99820 32803 ft 545 kts 103°
2026-05-01 11:38 22.89143 52.07919 32796 ft 545 kts 103°
2026-05-01 11:39 22.87822 52.16019 32790 ft 545 kts 103°
2026-05-01 11:39 22.86506 52.24060 32790 ft 545 kts 103°
2026-05-01 11:40 22.85179 52.32148 32784 ft 545 kts 103°
2026-05-01 11:40 22.83847 52.40240 32789 ft 545 kts 103°
2026-05-01 11:41 22.82553 52.48340 32796 ft 546 kts 100°
2026-05-01 11:41 22.82083 52.56573 32792 ft 548 kts 93°
2026-05-01 11:42 22.81947 52.64825 32790 ft 548 kts 93°
2026-05-01 11:42 22.81789 52.73085 32789 ft 548 kts 93°
2026-05-01 11:43 22.81582 52.81342 32785 ft 548 kts 94°
2026-05-01 11:43 22.81355 52.89595 32785 ft 548 kts 94°
2026-05-01 11:44 22.81011 53.01927 32789 ft 548 kts 94°
2026-05-01 11:44 22.80780 53.10175 32786 ft 547 kts 94°
2026-05-01 11:45 22.80545 53.18411 32787 ft 547 kts 94°
2026-05-01 11:45 22.80344 53.25318 32785 ft 547 kts 94°
2026-05-01 11:46 22.80103 53.33496 32784 ft 546 kts 94°
2026-05-01 11:46 22.79855 53.41724 32784 ft 546 kts 94°
2026-05-01 11:47 22.79603 53.49950 32786 ft 546 kts 94°
2026-05-01 11:47 22.79348 53.58177 32789 ft 546 kts 94°
2026-05-01 11:48 22.79088 53.66401 32778 ft 546 kts 94°
2026-05-01 11:48 22.78824 53.74620 32788 ft 546 kts 94°
2026-05-01 11:49 22.78556 53.82840 32777 ft 546 kts 94°
2026-05-01 11:49 22.78284 53.91055 32779 ft 546 kts 94°
2026-05-01 11:50 22.78286 53.99278 32782 ft 547 kts 87°
2026-05-01 11:50 22.79470 54.07419 32784 ft 548 kts 78°
2026-05-01 11:51 22.81181 54.15474 32778 ft 548 kts 77°
2026-05-01 11:51 22.82865 54.23474 32777 ft 548 kts 78°
2026-05-01 11:52 22.84509 54.31540 32777 ft 548 kts 78°
2026-05-01 11:52 22.86129 54.39612 32771 ft 548 kts 78°
2026-05-01 11:53 22.87747 54.47687 32775 ft 548 kts 78°
2026-05-01 11:53 22.89365 54.55765 32777 ft 548 kts 78°
2026-05-01 11:54 22.90957 54.63725 32762 ft 537 kts 78°
2026-05-01 11:54 22.92509 54.71513 32784 ft 545 kts 78°
2026-05-01 11:55 22.94125 54.79643 32777 ft 553 kts 78°
2026-05-01 11:55 22.95742 54.87799 32768 ft 551 kts 78°
2026-05-01 11:56 22.97346 54.95914 32779 ft 549 kts 78°
2026-05-01 11:56 22.98940 55.04002 32779 ft 548 kts 78°
2026-05-01 11:57 23.00527 55.12080 32783 ft 546 kts 78°
2026-05-01 11:57 23.02970 55.19782 32775 ft 541 kts 54°
2026-05-01 11:58 23.05386 55.22878 32796 ft 536 kts 39°
2026-05-01 11:58 23.08333 55.25315 32794 ft 532 kts 27°
2026-05-01 11:58 23.15087 55.28091 32793 ft 521 kts
2026-05-01 11:59 23.18656 55.29043 32792 ft 522 kts
2026-05-01 11:59 23.25741 55.30923 32804 ft 526 kts
2026-05-01 12:00 23.36382 55.34005 32801 ft 528 kts 10°
2026-05-01 12:01 23.46955 55.37133 32794 ft 527 kts 10°
2026-05-01 12:01 23.54026 55.39216 32802 ft 525 kts 10°
2026-05-01 12:02 23.61073 55.41308 32802 ft 525 kts 10°
2026-05-01 12:02 23.68111 55.43405 32814 ft 524 kts 10°
2026-05-01 12:03 23.75144 55.45500 32813 ft 524 kts 10°
2026-05-01 12:03 23.82171 55.47595 32799 ft 524 kts 10°
2026-05-01 12:03 23.85724 55.48652 31701 ft 536 kts 10°
2026-05-01 12:04 23.89270 55.49711 30729 ft 517 kts
2026-05-01 12:04 23.92666 55.50729 30049 ft 494 kts
2026-05-01 12:04 23.95909 55.51702 29353 ft 476 kts 10°
2026-05-01 12:04 23.99055 55.52929 28756 ft 486 kts 19°
2026-05-01 12:05 24.02073 55.54668 28155 ft 502 kts 27°
2026-05-01 12:05 24.07738 55.59551 26953 ft 524 kts 39°
2026-05-01 12:05 24.10396 55.62259 26331 ft 520 kts 40°
2026-05-01 12:06 24.13019 55.64964 25721 ft 515 kts 41°
2026-05-01 12:06 24.15632 55.67635 25114 ft 512 kts 40°
2026-05-01 12:06 24.18239 55.70264 24513 ft 508 kts 40°
2026-05-01 12:06 24.20842 55.72859 23914 ft 505 kts 40°
2026-05-01 12:07 24.23437 55.75431 23341 ft 501 kts 40°
2026-05-01 12:07 24.26007 55.77976 22726 ft 496 kts 40°
2026-05-01 12:07 24.28552 55.80499 22119 ft 491 kts 40°
2026-05-01 12:07 24.31072 55.83002 21470 ft 487 kts 40°
2026-05-01 12:08 24.33572 55.85488 20871 ft 483 kts 41°
2026-05-01 12:08 24.36047 55.87952 20316 ft 478 kts 41°
2026-05-01 12:08 24.38499 55.90393 19759 ft 474 kts 41°
2026-05-01 12:08 24.40931 55.92822 19192 ft 471 kts 41°
2026-05-01 12:09 24.43343 55.95231 18620 ft 467 kts 41°
2026-05-01 12:09 24.45730 55.97619 18050 ft 463 kts 41°
2026-05-01 12:09 24.48114 55.99961 17409 ft 450 kts 37°
2026-05-01 12:09 24.50645 56.01787 16437 ft 424 kts 23°
2026-05-01 12:10 24.53342 56.02885 15556 ft 402 kts 11°
2026-05-01 12:10 24.58473 56.03754 14640 ft 352 kts
2026-05-01 12:10 24.60868 56.03936 14178 ft 340 kts
2026-05-01 12:11 24.65603 56.04284 13346 ft 352 kts
2026-05-01 12:11 24.68098 56.04469 12907 ft 368 kts
2026-05-01 12:11 24.70682 56.04664 12339 ft 374 kts
2026-05-01 12:12 24.73311 56.04870 11336 ft 384 kts
2026-05-01 12:12 24.75990 56.05085 10775 ft 385 kts
2026-05-01 12:12 24.78619 56.05302 10510 ft 378 kts
2026-05-01 12:12 24.81262 56.05512 10341 ft 384 kts
2026-05-01 12:13 24.83924 56.05727 10154 ft 381 kts
2026-05-01 12:13 24.86579 56.05940 10041 ft 384 kts
2026-05-01 12:13 24.89218 56.06153 10006 ft 378 kts
2026-05-01 12:13 24.91851 56.06363 9996 ft 379 kts
2026-05-01 12:14 24.94476 56.06542 10000 ft 377 kts 356°
2026-05-01 12:14 24.97009 56.06014 10009 ft 369 kts 334°
2026-05-01 12:14 24.99180 56.04559 9994 ft 364 kts 316°
2026-05-01 12:14 25.00925 56.02555 9990 ft 360 kts 308°
2026-05-01 12:15 25.02585 56.00465 10011 ft 366 kts 309°
2026-05-01 12:15 25.04263 55.98350 9978 ft 365 kts 306°
2026-05-01 12:15 25.05541 55.96068 9670 ft 335 kts 291°
2026-05-01 12:15 25.06283 55.93760 9445 ft 304 kts 284°
2026-05-01 12:16 25.06759 55.91611 9230 ft 274 kts 279°
2026-05-01 12:16 25.07043 55.89620 8854 ft 254 kts 277°
2026-05-01 12:16 25.07272 55.87721 8201 ft 247 kts 277°
2026-05-01 12:16 25.07495 55.85829 7326 ft 251 kts 278°
2026-05-01 12:17 25.07723 55.83896 6400 ft 257 kts 278°
2026-05-01 12:17 25.07960 55.81925 5477 ft 261 kts 279°
2026-05-01 12:17 25.08202 55.79927 4626 ft 263 kts 279°
2026-05-01 12:17 25.08436 55.77998 4324 ft 245 kts 279°
2026-05-01 12:18 25.08659 55.76173 4122 ft 244 kts 279°
2026-05-01 12:18 25.08887 55.74314 3980 ft 240 kts 279°
2026-05-01 12:18 25.09117 55.72460 3998 ft 249 kts 279°
2026-05-01 12:18 25.09349 55.70570 3998 ft 246 kts 279°
2026-05-01 12:19 25.09572 55.68748 3994 ft 241 kts 279°
2026-05-01 12:19 25.09790 55.66968 3983 ft 226 kts 279°
2026-05-01 12:19 25.09991 55.65311 3947 ft 210 kts 280°
2026-05-01 12:19 25.10195 55.63792 3901 ft 193 kts 288°
2026-05-01 12:20 25.10771 55.62442 3932 ft 196 kts 303°
2026-05-01 12:20 25.11498 55.61158 3786 ft 198 kts 303°
2026-05-01 12:20 25.12243 55.59851 3396 ft 205 kts 303°
2026-05-01 12:20 25.12739 55.58977 3377 ft 194 kts 303°
2026-05-01 12:21 25.13237 55.58130 3359 ft 203 kts 303°